Location: Unspecified
(0.0000°N, 0.0000°E)
Time: 18:04:52
(UTC+00:00)

Courier 1B Rocket - Pass Details

Date: 02 October 2020
Orbit: 921 x 1202 km, 28.2° (Epoch: 27 October)

Event Time Altitude Azimuth Distance (km) Brightness Sun altitude
Rises 03:56:06 0° 280° (W) 3,823 - -28.2°
Reaches altitude 10° 04:00:21 10° 303° (WNW) 2,801 - -27.2°
Maximum altitude 04:03:51 15° 335° (NNW) 2,429 - -26.3°
Exits shadow 04:05:05 14° 347° (NNW) 2,455 6.9 -26.0°
Drops below altitude 10° 04:07:16 10° 7° (N) 2,700 7.3 -25.5°
Sets 04:11:15 0° 31° (NNE) 3,598 8.3 -24.5°
